SL-8 R/B, 20104

Orbit data source: Space-Track

SL-8 R/B, 20104 is space debris in LEO originally from a launch on Tue, 04 Jul 1989 UTC launched from the Plesetsk Missile And Space Complex (PKMTR). Debris objects in space refer to the collection of defunct objects orbiting the Earth. Examples of debris include non-operational satellites, rocket bodies, and fragments generated from explosions, collisions, or faulty payload assembly.

Loading next visibility...
Identifier
20104, 1989-050B
Orbit
LEO
Country
Flag of CISCIS
Related business
Manufacturer
Omsk Av. Zav.
Mission
Spacecraft
Bus & Motor
S3, Unknown motor
Mass
1,434 kg wet, 1,434 kg dry
Launch date (UTC)
1989-07-04 (37 years ago)
Launch vehicle
Unknown
Launch site
Plesetsk Missile And Space Complex (PKMTR)
Object type
Payload
Rocket body
Debris
Shape & HBR
Cyl, 2.1 m
Radar Cross Section
10.179 m², Large (>1 m²)

Expand to show TLE details & history
Last TLE update: 2 days ago

TLE from 2 days ago
0 SL-8 R/B
1 20104U 89050B   26171.45965644  .00000070  00000-0  55158-4 0  9994
2 20104  82.9563 249.2594 0042601 328.4214  31.4388 13.77618967857332
Epoch: 2026-06-20T11:01Z
TLE epoch observation values (Epoch: 2026-06-20T11:01:54.316Z)
Latitude
0.00002°
Longitude
175.10911°
Altitude
948.562 km
Speed
7.391 km/s
True Right ascension
16h 37m 02s
True Declination
0° 00' 00"
Sunlit
Object was in full shadow at epoch
Visualization orbit readout
Latitude
Unknown
Longitude
Unknown
Altitude
Unknown
Speed
Unknown
Apparent Right ascension
Unknown
Apparent Declination
Unknown
Sunlit
N/A
Visualization observer readout
Local Sidereal Time
23:08:00
Azimuth
Unknown
Elevation
Unknown
Doppler factor
Unknown
Orbital elements
Apogee altitude
1,000.79 km
Perigee altitude
938.187 km
Semi-major axis
7,347.626 km
Eccentricity
0.00426
Inclination
82.9563°
RAAN
249.2594°
Arg. of periapsis
328.4214°
True anomaly
31.69459°
Mean anomaly
31.4388°
Eccentric anomaly
31.56658°
Mean motion
3.44606 °/min
Orbital period
104.47 mins
BSTAR
0.000055158
Loading maneuver chart data...
Computing Atmospheric mass density...
Loading historical data...
Loading historical data...
Loading historical data...
Loading historical data...
Loading historical data...
Loading historical data...
Loading historical data...
Other satellites on launch #50 in the year 1989 (1989-07-04 UTC)

Documentation

Showing up to 5 results
|